Location: Easter Hill Village
(37.9235°N, 122.3444°W)
Time: 06:45:17
(UTC+00:00)

Lacrosse 5 rocket - Pass Details

Date: 16 September 2019
Orbit: 459 x 639 km, 57.0° (Epoch: 15 October)

Event Time Altitude Azimuth Distance (km) Brightness Sun altitude
Rises 13:01:56 0° 316° (NW) 2,762 4.6 -10.6°
Reaches altitude 10° 13:04:08 10° 315° (NW) 1,891 3.7 -10.2°
Maximum altitude 13:08:27 77° 230° (SW) 618 1.4 -9.3°
Drops below altitude 10° 13:12:57 10° 144° (SE) 1,976 4.5 -8.5°
Sets 13:15:17 0° 143° (SE) 2,896 5.4 -8.0°
